1508054400.56,65505,16.25,74886.8,9.55,-19.57,-20.79,0,*71
1508054401.78,65506,16.25,74892.5,9.55,-16.65,-17.69,0,*79
1508054403.06,65507,16.31,74904.3,9.57,-16.09,-17.11,0,*7F
1508054404.34,65508,16.25,74866.3,9.57,-16.09,-17.25,0,*77
1508054405.56,65509,16.25,74874.8,9.55,-16.37,-17.45,0,*7F
1508054406.78,65510,16.25,74878.5,9.55,-16.37,-17.41,0,*73
1508054408.01,65511,16.25,74890.0,9.59,-15.57,-16.59,0,*73
1508054409.26,65512,16.25,74894.5,9.59,-15.57,-16.65,0,*7F
1508054410.48,65513,16.25,74894.5,9.61,-15.99,-16.97,0,*7A
1508054411.73,65514,16.25,74894.3,9.61,-17.93,-19.13,0,*76
1508054412.93,65515,16.25,74898.5,9.59,-17.35,-18.45,0,*72
1508054414.13,65516,16.31,74892.5,9.59,-16.93,-18.11,0,*7D
1508054415.35,65517,16.31,74898.8,9.59,-16.79,-17.93,0,*7D
1508054416.58,65518,16.25,74898.0,9.59,-17.17,-18.25,0,*79
1508054417.8,65519,16.31,74894.3,9.59,-17.07,-18.21,0,*7D
1508054419.02,65520,16.25,74890.3,9.59,-18.11,-19.27,0,*78
1508054420.3,65521,16.25,74890.3,9.57,-16.23,-17.41,0,*76
1508054421.55,65522,16.31,74894.5,9.57,-17.41,-18.49,0,*77
1508054422.77,65523,16.25,74886.8,9.57,-17.87,-19.03,0,*73
1508054424.02,65524,16.31,74892.0,9.55,-17.97,-19.23,0,*75
1508054425.24,65525,16.31,74892.0,9.57,-18.17,-19.37,0,*74
1508054426.46,65526,16.31,74892.8,9.55,-17.55,-18.65,0,*7A
1508054427.65,65527,16.25,74890.8,9.55,-17.69,-18.79,0,*79
1508054428.89,65528,16.31,74890.5,9.53,-17.59,-18.79,0,*73
1508054430.11,65529,16.31,74888.5,9.49,-18.83,-20.05,0,*71
1508054431.39,65530,16.31,74888.5,9.53,-18.01,-19.27,0,*72
1508054432.64,65531,16.25,74884.5,9.49,-17.97,-19.13,0,*7F
1508054433.86,65532,16.31,74888.8,9.47,-17.55,-18.73,0,*7B
1508054435.09,65533,16.31,74890.8,9.47,-17.21,-18.11,0,*7D
1508054436.31,65534,16.31,74888.8,9.47,-17.55,-18.69,0,*76
1508054437.54,65535,16.31,74878.0,9.47,-16.89,-17.97,0,*79
1508054438.73,0,16.31,74880.5,9.47,-16.03,-17.17,0,*73
1508054439.91,1,16.31,74880.3,9.47,-15.63,-16.75,0,*72
1508054441.16,2,16.31,74874.3,9.53,-15.39,-16.51,0,*7D
1508054442.4,3,16.31,74864.8,9.53,-15.21,-16.23,0,*70
1508054443.57,4,16.31,74874.0,9.55,-15.75,-16.93,0,*7B
1508054444.8,5,16.31,74882.8,9.57,-15.35,-16.37,0,*72
1508054446.0,6,16.31,74882.8,9.59,-14.89,-15.85,0,*73
1508054447.22,7,16.31,74888.3,9.61,-14.97,-15.99,0,*7B
1508054448.42,8,16.31,74888.0,9.61,-15.07,-15.99,0,*7C
1508054449.67,9,16.31,74884.5,9.65,-15.01,-16.09,0,*75
1508054450.9,10,16.31,74882.8,9.65,-15.49,-16.51,0,*4C
1508054452.15,11,16.31,74880.8,9.65,-15.35,-16.51,0,*46
1508054453.38,12,16.31,74880.8,9.69,-14.97,-15.99,0,*47
1508054454.58,13,16.31,74882.0,9.69,-15.49,-16.59,0,*4B
1508054455.81,14,16.31,74890.5,9.69,-15.63,-16.69,0,*47
1508054457.02,15,16.31,74894.5,9.71,-15.29,-16.31,0,*4C
1508054458.25,16,16.31,74898.8,9.73,-15.11,-16.13,0,*46
1508054459.48,17,16.31,74896.3,9.73,-15.25,-16.31,0,*40
1508054460.69,18,16.31,74894.5,9.73,-15.71,-16.89,0,*4D
1508054461.93,19,16.31,74896.8,9.73,-16.45,-17.59,0,*44
1508054463.19,20,16.31,74900.3,9.73,-16.13,-17.17,0,*47
1508054464.43,21,16.31,74894.3,9.73,-15.57,-16.75,0,*40
1508054465.66,22,16.31,74894.0,9.73,-18.65,-19.85,0,*4F
1508054466.89,23,16.31,74896.5,9.71,-16.69,-17.79,0,*43
1508054468.15,24,16.31,74894.0,9.73,-15.57,-16.69,0,*48
1508054469.36,25,16.31,74892.3,9.73,-15.67,-16.75,0,*47
1508054470.59,26,16.31,74894.8,9.73,-16.45,-17.63,0,*41
1508054471.8,27,16.31,74892.3,9.73,-17.49,-18.79,0,*49
1508054473.04,28,16.31,74888.5,9.73,-16.69,-17.87,0,*4B
1508054474.27,29,16.31,74898.8,9.73,-16.75,-17.93,0,*42
1508054475.51,30,16.31,74892.3,9.73,-18.11,-19.27,0,*47
1508054476.7,31,16.31,74890.3,9.71,-19.17,-20.39,0,*46
1508054477.87,32,16.31,74892.0,9.67,-20.05,-21.39,0,*4A
1508054479.1,33,16.31,74894.0,9.65,-19.81,-21.17,0,*43
1508054480.31,34,16.31,74892.0,9.63,-19.75,-21.23,0,*4E
1508054481.55,35,16.31,74894.5,9.61,-19.71,-20.99,0,*49
1508054482.77,36,16.31,74894.8,9.57,-19.71,-20.93,0,*45
1508054483.95,37,16.31,74894.5,9.55,-19.17,-20.29,0,*47
1508054485.18,38,16.31,74892.8,9.53,-18.99,-20.15,0,*46
1508054486.41,39,16.31,74892.5,9.49,-18.59,-19.91,0,*46
1508054487.63,40,16.31,74896.0,9.49,-19.13,-20.43,0,*42
1508054488.9,41,16.31,74892.3,9.49,-19.27,-20.35,0,*45
1508054490.15,42,16.31,74894.5,9.45,-18.93,-20.25,0,*45
1508054491.38,43,16.31,74886.8,9.45,-18.59,-19.71,0,*49
1508054492.61,44,16.31,74892.0,9.45,-18.59,-19.71,0,*4E
1508054493.8,45,16.31,74894.8,9.43,-17.87,-19.17,0,*45
1508054495.03,46,16.31,74884.8,9.41,-17.73,-18.93,0,*42
1508054496.26,47,16.31,74878.0,9.41,-17.73,-18.93,0,*43
1508054497.47,48,16.31,74876.8,9.43,-17.69,-18.93,0,*45
1508054498.66,49,16.31,74864.3,9.43,-17.35,-18.45,0,*46
1508054499.87,50,16.31,74888.0,9.43,-16.45,-17.55,0,*46
1508054501.08,51,16.31,74886.5,9.43,-16.37,-17.41,0,*47
1508054502.29,52,16.31,74884.3,9.43,-16.59,-17.55,0,*49
1508054503.55,53,16.31,74886.3,9.45,-16.17,-17.25,0,*43
1508054504.79,54,16.31,74884.3,9.47,-15.89,-17.07,0,*42
1508054506.02,55,16.31,74894.3,9.47,-15.43,-16.31,0,*41
1508054507.23,56,16.31,74890.5,9.53,-15.67,-16.75,0,*41
1508054508.41,57,16.31,74878.3,9.55,-15.75,-16.93,0,*4D
1508054509.67,58,16.31,74884.8,9.53,-16.51,-17.59,0,*46
1508054510.92,59,16.31,74896.0,9.53,-16.13,-17.25,0,*4A
1508054512.12,60,16.31,74880.8,9.55,-19.51,-20.89,0,*4D
1508054513.32,61,16.31,74894.5,9.55,-19.41,-20.73,0,*48
1508054514.51,62,16.31,74896.0,9.47,-18.83,-19.91,0,*41
1508054515.71,63,16.31,74890.0,9.47,-19.41,-20.69,0,*42
1508054516.92,64,16.31,74892.0,9.45,-18.65,-19.99,0,*45
1508054518.13,65,16.31,74890.5,9.45,-18.17,-19.47,0,*42
1508054519.31,66,16.31,74870.5,9.43,-18.25,-19.51,0,*41
1508054520.54,67,16.31,74874.5,9.43,-17.41,-18.59,0,*44
1508054521.78,68,16.31,74878.0,9.41,-16.83,-17.93,0,*4F
1508054523.01,69,16.31,74886.8,9.41,-17.55,-18.65,0,*42
1508054524.23,70,16.31,74890.0,9.43,-16.79,-17.97,0,*45
1508054525.44,71,16.31,74884.8,9.43,-16.69,-17.83,0,*40
1508054526.66,72,16.31,74878.8,9.43,-17.41,-18.49,0,*41
1508054527.86,73,16.31,74882.5,9.43,-17.69,-18.89,0,*46
1508054529.05,74,16.31,74880.8,9.43,-17.35,-18.49,0,*44
1508054530.28,75,16.31,74880.5,9.43,-16.31,-17.41,0,*47
1508054531.51,76,16.31,74880.8,9.43,-15.57,-16.51,0,*47
1508054532.72,77,16.31,74884.8,9.47,-16.45,-17.55,0,*47
1508054533.9,78,16.31,74890.3,9.47,-16.59,-17.69,0,*4A
1508054535.11,79,16.31,74890.0,9.47,-16.75,-17.93,0,*40
1508054536.29,80,16.31,74888.5,9.47,-18.07,-19.17,0,*4F
1508054537.52,81,16.31,74886.8,9.49,-18.21,-19.27,0,*47
1508054538.76,82,16.31,74890.0,9.45,-18.93,-20.25,0,*49
1508054540.0,83,16.31,74888.5,9.45,-19.65,-20.73,0,*43
1508054541.21,84,16.31,74888.8,9.43,-19.47,-20.79,0,*48
1508054542.47,85,16.31,74892.3,9.39,-18.35,-19.41,0,*41
1508054543.67,86,16.31,74890.5,9.37,-17.31,-18.35,0,*45
1508054544.9,87,16.31,74894.5,9.41,-17.11,-18.17,0,*47
1508054546.14,88,16.31,74896.3,9.41,-16.55,-17.59,0,*4C
1508054547.37,89,16.31,74896.5,9.41,-16.89,-18.01,0,*4E
1508054548.61,90,16.31,74892.3,9.41,-15.85,-16.97,0,*48
1508054549.84,91,16.31,74898.5,9.43,-17.41,-18.59,0,*4D
1508054551.05,92,16.31,74896.8,9.43,-18.17,-19.23,0,*4E
1508054552.28,93,16.31,74896.3,9.43,-17.97,-19.23,0,*48
1508054553.55,94,16.31,74894.8,9.41,-19.23,-20.49,0,*4A
1508054554.76,95,16.31,74894.0,9.39,-19.47,-20.89,0,*4A
1508054555.99,96,16.31,74894.0,9.35,-20.29,-21.83,0,*4C
1508054557.2,97,16.31,74872.0,9.33,-18.93,-20.25,0,*4C
1508054558.43,98,16.31,74858.3,9.35,-18.31,-19.51,0,*44
1508054559.62,99,16.31,74862.3,9.33,-16.75,-17.87,0,*48
1508054560.84,100,16.31,74864.5,9.33,-16.65,-17.83,0,*7C
1508054562.08,101,16.31,74880.8,9.35,-17.55,-18.65,0,*7E
1508054563.26,102,16.31,74902.0,9.33,-16.75,-17.73,0,*70
1508054564.47,103,16.31,74886.3,9.37,-16.03,-17.17,0,*76
1508054565.65,104,16.31,74888.5,9.37,-15.75,-16.93,0,*7E
1508054566.92,105,16.31,74890.8,9.39,-15.85,-17.07,0,*72
1508054568.15,106,16.31,74892.3,9.39,-15.67,-16.69,0,*74
1508054569.36,107,16.31,74898.3,9.43,-15.29,-16.31,0,*7F
1508054570.6,108,16.31,74896.5,9.43,-15.21,-16.23,0,*7B
1508054571.84,109,16.38,74900.0,9.43,-16.09,-17.21,0,*70
1508054573.06,110,16.31,74894.8,9.47,-16.59,-17.79,0,*74
1508054574.26,111,16.31,74894.8,9.45,-17.87,-19.07,0,*72
1508054575.48,112,16.31,74894.0,9.45,-16.97,-18.11,0,*77
1508054576.72,113,16.31,74896.0,9.45,-16.51,-17.69,0,*7C
1508054577.99,114,16.31,74898.5,9.45,-16.51,-17.59,0,*78
1508054579.23,115,16.31,74894.3,9.47,-17.45,-18.55,0,*7C
1508054580.44,116,16.31,74894.5,9.47,-17.93,-19.17,0,*73
1508054581.63,117,16.31,74890.0,9.47,-17.83,-19.13,0,*77
1508054582.86,118,16.38,74900.0,9.45,-16.31,-17.49,0,*73
1508054584.12,119,16.31,74892.8,9.45,-15.81,-17.25,0,*70
1508054585.32,120,16.31,74886.3,9.47,-15.99,-17.17,0,*70
1508054586.56,121,16.31,74888.8,9.47,-15.39,-16.65,0,*7F
1508054587.77,122,16.31,74886.8,9.49,-15.71,-16.79,0,*73
1508054588.98,123,16.31,74882.3,9.53,-15.67,-16.83,0,*7B
1508054590.22,124,16.31,74892.0,9.53,-16.23,-17.31,0,*77
1508054591.45,125,16.31,74890.3,9.55,-16.17,-17.11,0,*75
1508054592.66,126,16.31,74884.3,9.55,-17.07,-18.25,0,*7E
1508054593.87,127,16.31,74894.3,9.57,-16.45,-17.69,0,*7D
1508054595.06,128,16.31,74888.3,9.55,-16.83,-18.11,0,*7A
1508054596.31,129,16.31,74886.8,9.55,-19.23,-20.49,0,*78
1508054597.55,130,16.31,74886.3,9.53,-18.49,-19.85,0,*71
1508054598.76,131,16.38,74888.8,9.49,-17.49,-18.69,0,*77
1508054599.99,132,16.31,74886.5,9.49,-17.45,-19.03,0,*75
1508054601.2,133,16.31,74888.5,9.49,-16.93,-18.07,0,*7B
1508054602.44,134,16.38,74890.5,9.49,-17.17,-18.25,0,*71
1508054603.68,135,16.31,74884.5,9.49,-16.41,-17.55,0,*7A
1508054604.89,136,16.31,74882.3,9.53,-15.71,-16.97,0,*7D
1508054606.12,137,16.31,74888.8,9.53,-15.81,-16.97,0,*73
1508054607.33,138,16.31,74888.8,9.55,-16.37,-17.55,0,*7B
1508054608.54,139,16.31,74888.5,9.57,-15.67,-16.93,0,*75
1508054609.78,140,16.31,74886.5,9.57,-16.37,-17.41,0,*73
1508054611.02,141,16.31,74888.0,9.57,-15.63,-16.69,0,*7B
1508054612.26,142,16.31,74892.5,9.59,-15.85,-17.03,0,*73
1508054613.5,143,16.31,74892.5,9.61,-15.81,-16.97,0,*71
1508054614.71,144,16.31,74894.5,9.61,-15.71,-16.97,0,*79
1508054615.95,145,16.31,74888.5,9.61,-16.45,-17.63,0,*76
1508054617.19,146,16.38,74882.8,9.61,-15.95,-17.03,0,*7D
1508054618.43,147,16.31,74880.8,9.61,-16.27,-17.49,0,*78
1508054619.69,148,16.31,74884.8,9.65,-16.23,-17.41,0,*7F
1508054620.96,149,16.31,74884.3,9.65,-16.09,-17.21,0,*70
1508054622.2,150,16.31,74888.8,9.65,-16.03,-17.21,0,*72
1508054623.44,151,16.38,74886.5,9.65,-16.51,-17.73,0,*73
1508054624.69,152,16.31,74882.5,9.65,-16.65,-17.87,0,*7C
1508054625.9,153,16.38,74876.0,9.67,-18.07,-19.31,0,*76
1508054627.08,154,16.38,74882.0,9.63,-17.31,-18.41,0,*79
1508054628.29,155,16.38,74884.5,9.65,-16.97,-18.17,0,*70
1508054629.55,156,16.31,74890.3,9.65,-16.31,-17.55,0,*76
1508054630.79,157,16.38,74896.5,9.65,-16.37,-17.59,0,*7D
1508054632.01,158,16.38,74892.0,9.65,-16.41,-17.69,0,*70
1508054633.23,159,16.38,74894.0,9.65,-16.93,-18.11,0,*7E
1508054634.41,160,16.31,74888.5,9.63,-16.45,-17.73,0,*72
1508054635.63,161,16.38,74886.5,9.65,-16.83,-18.11,0,*74
1508054636.89,162,16.38,74884.0,9.65,-16.31,-17.45,0,*70
1508054638.16,163,16.31,74882.3,9.65,-16.17,-17.41,0,*71
1508054639.4,164,16.38,74882.8,9.65,-16.65,-17.73,0,*72
1508054640.64,165,16.38,74892.8,9.65,-16.37,-17.45,0,*71
1508054641.88,166,16.31,74884.0,9.67,-16.13,-17.25,0,*70
1508054643.15,167,16.31,74882.0,9.69,-15.85,-17.07,0,*73
1508054644.38,168,16.31,74888.3,9.69,-15.89,-16.93,0,*7C
1508054645.62,169,16.31,74890.3,9.69,-15.57,-16.79,0,*7A
1508054646.85,170,16.38,74894.5,9.69,-15.57,-16.89,0,*7D
1508054648.06,171,16.38,74892.5,9.71,-15.43,-16.41,0,*74
1508054649.31,172,16.31,74894.0,9.73,-15.39,-16.59,0,*71
1508054650.52,173,16.31,74892.5,9.71,-15.43,-16.75,0,*71
1508054651.78,174,16.38,74892.3,9.77,-15.35,-16.51,0,*77
1508054652.98,175,16.38,74894.8,9.77,-15.67,-16.93,0,*7F
1508054654.21,176,16.31,74896.5,9.77,-15.49,-16.65,0,*79
1508054655.43,177,16.38,74892.8,9.79,-15.29,-16.51,0,*77
1508054656.63,178,16.31,74890.8,9.81,-15.63,-16.89,0,*74
1508054657.88,179,16.38,74892.8,9.81,-18.31,-19.75,0,*73
1508054659.11,180,16.38,74892.5,9.77,-18.49,-19.81,0,*78
1508054660.34,181,16.38,74896.3,9.73,-19.13,-20.63,0,*75
1508054661.57,182,16.38,74896.3,9.73,-20.19,-21.77,0,*72
1508054662.81,183,16.38,74888.5,9.67,-21.03,-22.73,0,*7B
1508054664.05,184,16.31,74872.3,9.63,-21.87,-23.49,0,*7C
1508054665.26,185,16.38,74862.8,9.59,-20.19,-21.63,0,*78
1508054666.49,186,16.38,74874.5,9.57,-18.59,-19.95,0,*78
1508054667.68,187,16.38,74874.8,9.55,-17.35,-18.49,0,*7E
1508054668.9,188,16.31,74876.8,9.55,-16.65,-17.87,0,*78
1508054670.12,189,16.31,74882.0,9.59,-16.75,-18.01,0,*75
1508054671.36,190,16.38,74894.0,9.57,-16.51,-17.87,0,*74
1508054672.62,191,16.38,74892.5,9.57,-16.09,-17.55,0,*77
1508054673.87,192,16.38,74886.8,9.61,-16.55,-17.79,0,*76
1508054675.11,193,16.38,74884.8,9.61,-16.41,-17.63,0,*79
1508054676.32,194,16.38,74880.5,9.59,-16.27,-17.49,0,*7D
1508054677.56,195,16.38,74876.0,9.61,-16.75,-18.01,0,*73
1508054678.81,196,16.38,74876.8,9.61,-16.75,-18.01,0,*70
1508054680.05,197,16.38,74894.3,9.61,-16.59,-17.79,0,*7F
1508054681.23,198,16.38,74888.3,9.63,-16.37,-17.49,0,*79
1508054682.49,199,16.38,74894.5,9.61,-17.79,-19.23,0,*73
1508054683.7,200,16.38,74888.5,9.63,-18.21,-19.57,0,*73
1508054684.9,201,16.38,74884.3,9.59,-17.31,-18.59,0,*7A
1508054686.1,202,16.38,74886.5,9.59,-16.59,-17.83,0,*7E
1508054687.34,203,16.38,74890.5,9.61,-16.41,-17.79,0,*78
1508054688.58,204,16.38,74892.5,9.61,-16.45,-17.63,0,*70
1508054689.79,205,16.38,74884.8,9.63,-15.95,-17.17,0,*7E
1508054691.0,206,16.38,74890.8,9.63,-16.37,-17.63,0,*75
1508054692.21,207,16.38,74902.8,9.65,-15.95,-16.97,0,*73
1508054693.43,208,16.38,74894.5,9.63,-16.41,-17.63,0,*7A
1508054694.66,209,16.38,74892.0,9.65,-16.03,-17.25,0,*79
1508054695.88,210,16.38,74900.5,9.65,-15.75,-16.93,0,*7F
1508054697.12,211,16.38,74902.5,9.65,-16.37,-17.59,0,*7C
1508054698.36,212,16.38,74896.3,9.67,-16.13,-17.41,0,*72
1508054699.6,213,16.38,74890.8,9.67,-15.89,-17.17,0,*70
1508054700.84,214,16.38,74892.5,9.69,-15.75,-17.03,0,*7F
1508054702.08,215,16.38,74890.0,9.69,-15.75,-17.03,0,*7E
1508054703.32,216,16.38,74892.0,9.69,-15.75,-17.03,0,*7D
1508054704.53,217,16.38,74892.3,9.69,-15.71,-16.93,0,*70
1508054705.77,218,16.38,74888.3,9.73,-15.57,-16.83,0,*71
1508054707.01,219,16.38,74894.0,9.71,-15.85,-17.11,0,*77
1508054708.22,220,16.38,74894.3,9.73,-15.67,-16.89,0,*73
1508054709.48,221,16.38,74888.8,9.77,-16.65,-17.97,0,*79
1508054710.7,222,16.38,74890.0,9.77,-16.55,-17.83,0,*7C
1508054711.93,223,16.38,74896.0,9.77,-16.17,-17.31,0,*72
1508054713.2,224,16.38,74892.8,9.77,-16.09,-17.45,0,*79
1508054714.43,225,16.38,74894.5,9.77,-16.03,-17.17,0,*75
1508054715.7,226,16.38,74896.8,9.77,-16.69,-17.97,0,*72
1508054716.96,227,16.38,74896.3,9.77,-16.23,-17.45,0,*72
1508054718.21,228,16.38,74896.3,9.77,-16.23,-17.55,0,*7C
1508054719.48,229,16.38,74898.5,9.77,-15.89,-17.11,0,*7E
1508054720.71,230,16.38,74892.5,9.77,-17.11,-18.45,0,*7B
1508054721.92,231,16.38,74896.5,9.77,-16.41,-17.73,0,*74
1508054723.13,232,16.38,74888.8,9.77,-16.97,-18.21,0,*74
1508054724.36,233,16.38,74888.3,9.79,-17.11,-18.55,0,*77
1508054725.57,234,16.38,74892.3,9.77,-16.37,-17.69,0,*7B
1508054726.84,235,16.38,74894.3,9.77,-15.81,-17.07,0,*7C
1508054728.08,236,16.38,74898.0,9.77,-15.75,-17.07,0,*74
1508054729.3,237,16.38,74896.0,9.79,-15.71,-17.03,0,*7B
1508054730.54,238,16.38,74896.8,9.79,-15.85,-17.11,0,*7C
1508054731.77,239,16.38,74894.5,9.77,-16.09,-17.31,0,*76
1508054732.96,240,16.38,74894.8,9.79,-15.71,-16.89,0,*78
1508054734.14,241,16.38,74892.8,9.83,-15.71,-16.93,0,*77
1508054735.4,242,16.38,74896.0,9.81,-16.31,-17.63,0,*7F
1508054736.64,243,16.38,74904.0,9.81,-16.03,-17.21,0,*79
1508054737.9,244,16.38,74896.0,9.81,-16.51,-17.79,0,*74
1508054739.13,245,16.38,74892.3,9.81,-17.03,-18.41,0,*77
1508054740.37,246,16.38,74890.3,9.81,-17.07,-18.45,0,*74
1508054741.59,247,16.38,74892.3,9.83,-16.55,-17.79,0,*71
1508054742.83,248,16.38,74898.3,9.81,-16.13,-17.49,0,*7D
1508054744.06,249,16.38,74896.5,9.81,-16.31,-17.69,0,*7E
1508054745.29,250,16.38,74894.0,9.83,-16.09,-17.35,0,*76
1508054746.52,251,16.38,74890.5,9.83,-16.31,-17.63,0,*7F
1508054747.76,252,16.38,74892.5,9.81,-16.51,-17.83,0,*76
1508054749.0,253,16.38,74892.3,9.83,-16.17,-17.59,0,*70
1508054750.22,254,16.38,74894.3,9.83,-15.71,-17.03,0,*7B
1508054751.43,255,16.38,74898.0,9.83,-15.57,-16.97,0,*72
1508054752.62,256,16.38,74884.3,9.83,-15.67,-16.97,0,*72
1508054753.83,257,16.38,74890.8,9.87,-16.03,-17.25,0,*7E
1508054755.07,258,16.38,74876.8,9.87,-17.03,-18.31,0,*7A
1508054756.26,259,16.38,74880.8,9.87,-16.41,-17.73,0,*75
1508054757.47,260,16.38,74876.3,9.85,-17.35,-18.79,0,*7A
1508054758.69,261,16.38,74886.3,9.85,-16.83,-18.07,0,*7E
1508054759.93,262,16.38,74890.0,9.85,-16.09,-17.35,0,*71
1508054761.17,263,16.38,74886.0,9.85,-16.55,-17.93,0,*75
1508054762.38,264,16.38,74892.3,9.85,-16.75,-18.21,0,*76
1508054763.59,265,16.38,74896.0,9.85,-16.89,-18.25,0,*70
1508054764.79,266,16.38,74900.0,9.85,-16.89,-18.25,0,*73
1508054766.05,267,16.44,74904.3,9.85,-16.31,-17.79,0,*77
1508054767.29,268,16.38,74900.8,9.85,-16.17,-17.49,0,*7F
1508054768.53,269,16.38,74900.3,9.87,-16.09,-17.25,0,*79
1508054769.71,270,16.38,74900.0,9.87,-15.95,-17.31,0,*72
1508054770.96,271,16.38,74900.8,9.87,-16.09,-17.55,0,*77
1508054772.19,272,16.38,74902.3,9.87,-16.27,-17.55,0,*78
1508054773.46,273,16.38,74900.0,9.89,-16.17,-17.55,0,*74
1508054774.7,274,16.44,74896.5,9.89,-17.79,-19.17,0,*72
1508054775.94,275,16.38,74896.8,9.89,-16.79,-18.01,0,*74
1508054777.13,276,16.38,74894.8,9.87,-16.55,-17.87,0,*76
1508054778.32,277,16.38,74908.3,9.87,-16.79,-18.21,0,*7A
1508054779.54,278,16.38,74904.5,9.89,-16.79,-18.17,0,*7E
1508054780.78,279,16.38,74906.5,9.89,-16.75,-17.97,0,*74
1508054782.02,280,16.38,74904.0,9.89,-16.31,-17.69,0,*73
1508054783.24,281,16.38,74902.3,9.89,-16.45,-17.87,0,*71
1508054784.5,282,16.38,74904.3,9.89,-15.89,-17.25,0,*79
1508054785.77,283,16.38,74906.0,9.89,-15.85,-17.11,0,*73
1508054787.01,284,16.38,74906.3,9.89,-16.09,-17.49,0,*7E
1508054788.23,285,16.38,74904.5,9.93,-15.99,-17.35,0,*75
1508054789.41,286,16.44,74908.8,9.91,-16.93,-18.17,0,*72
1508054790.65,287,16.44,74904.0,9.89,-18.41,-19.81,0,*75
1508054791.85,288,16.38,74902.3,9.89,-17.69,-19.03,0,*75
1508054793.04,289,16.38,74900.3,9.91,-17.69,-19.17,0,*78
1508054794.25,290,16.38,74904.5,9.85,-17.35,-18.79,0,*75
1508054795.49,291,16.38,74900.8,9.87,-16.13,-17.55,0,*72
1508054796.68,292,16.38,74906.3,9.87,-16.93,-18.17,0,*70
1508054797.91,293,16.38,74898.8,9.85,-17.63,-19.13,0,*78
1508054799.15,294,16.38,74898.0,9.89,-17.83,-19.31,0,*7D
1508054800.36,295,16.38,74896.8,9.85,-16.83,-18.21,0,*71
1508054801.63,296,16.38,74894.3,9.85,-16.13,-17.45,0,*76
1508054802.82,297,16.38,74892.0,9.87,-16.41,-17.69,0,*7C
1508054804.06,298,16.38,74904.5,9.87,-16.23,-17.59,0,*74
1508054805.3,299,16.44,74906.0,9.85,-16.69,-18.07,0,*7D
1508054806.5,300,16.38,74906.8,9.87,-16.55,-17.87,0,*76
1508054807.69,301,16.38,74902.5,9.87,-16.79,-18.21,0,*7A
1508054808.95,302,16.38,74882.8,9.85,-17.97,-19.31,0,*7A
1508054810.19,303,16.38,74902.5,9.87,-16.69,-17.93,0,*7F
1508054811.38,304,16.38,74906.3,9.87,-16.37,-17.73,0,*7D
1508054812.64,305,16.38,74904.8,9.89,-16.17,-17.63,0,*71
1508054813.91,306,16.44,74894.5,9.89,-17.07,-18.55,0,*78
1508054815.12,307,16.38,74876.5,9.89,-16.89,-18.41,0,*7B
1508054816.36,308,16.44,74908.5,9.89,-17.21,-18.69,0,*7D
1508054817.56,309,16.38,74904.5,9.89,-16.93,-18.25,0,*7C
1508054818.77,310,16.38,74904.5,9.87,-17.31,-18.93,0,*7E
1508054820.01,311,16.38,74904.5,9.87,-17.45,-18.59,0,*7A
1508054821.19,312,16.38,74910.8,9.87,-16.79,-18.17,0,*7D
1508054822.38,313,16.38,74904.3,9.87,-16.41,-17.73,0,*7A
1508054823.6,314,16.38,74908.5,9.87,-16.69,-18.07,0,*7B
1508054824.81,315,16.44,74908.0,9.87,-16.69,-18.17,0,*7B
1508054826.04,316,16.38,74902.3,9.87,-17.03,-18.59,0,*7F
1508054827.26,317,16.38,74902.0,9.87,-17.87,-19.41,0,*7A
1508054828.46,318,16.44,74900.5,9.85,-17.73,-19.03,0,*7A
1508054829.67,319,16.38,74902.8,9.87,-17.03,-18.49,0,*71
1508054830.91,320,16.38,74898.8,9.85,-17.45,-18.99,0,*76
1508054832.12,321,16.38,74900.0,9.85,-17.49,-18.79,0,*75
1508054833.36,322,16.44,74904.0,9.85,-16.41,-17.79,0,*70
1508054834.6,323,16.44,74904.0,9.85,-16.59,-17.97,0,*78
1508054835.81,324,16.44,74910.3,9.87,-16.27,-17.73,0,*7E
1508054837.02,325,16.38,74910.3,9.87,-16.27,-17.69,0,*74
1508054838.22,326,16.38,74908.3,9.87,-16.41,-17.87,0,*77
1508054839.44,327,16.38,74910.3,9.85,-16.45,-17.87,0,*70
1508054840.65,328,16.44,74912.5,9.87,-16.27,-17.69,0,*79
1508054841.9,329,16.44,74914.3,9.87,-16.09,-17.45,0,*7A
1508054843.11,330,16.38,74910.5,9.91,-16.89,-18.31,0,*71
1508054844.32,331,16.44,74910.5,9.91,-17.49,-18.89,0,*7E
1508054845.56,332,16.44,74912.5,9.89,-17.41,-18.83,0,*76
1508054846.75,333,16.38,74908.8,9.87,-16.97,-18.49,0,*75
1508054847.96,334,16.44,74914.0,9.91,-17.87,-19.31,0,*7B
1508054849.2,335,16.38,74910.5,9.89,-17.11,-18.69,0,*70
1508054850.38,336,16.44,74914.5,9.87,-17.31,-18.83,0,*7B
1508054851.57,337,16.44,74914.3,9.87,-17.87,-19.13,0,*7F
1508054852.78,338,16.44,74920.8,9.85,-17.73,-19.17,0,*7D
1508054854.03,339,16.44,74922.0,9.87,-19.65,-21.23,0,*7B
1508054855.27,340,16.38,74918.5,9.81,-20.53,-22.11,0,*7E
1508054856.47,341,16.44,74914.8,9.83,-20.35,-22.07,0,*7A
1508054857.71,342,16.38,74906.3,9.77,-18.35,-19.99,0,*76
1508054858.93,343,16.44,74906.5,9.73,-18.41,-19.91,0,*78
1508054860.14,344,16.44,74900.5,9.71,-18.55,-20.09,0,*73
1508054861.34,345,16.44,74900.3,9.71,-17.21,-18.79,0,*72
1508054862.55,346,16.44,74902.0,9.73,-16.97,-18.41,0,*74
1508054863.82,347,16.44,74908.8,9.73,-17.17,-18.55,0,*79
1508054865.05,348,16.44,74906.5,9.73,-17.21,-18.83,0,*78
1508054866.27,349,16.44,74904.3,9.73,-16.75,-18.21,0,*71
1508054867.48,350,16.44,74898.0,9.77,-16.93,-18.45,0,*77
1508054868.66,351,16.44,74896.3,9.79,-16.89,-18.41,0,*77
1508054869.9,352,16.44,74902.8,9.79,-16.23,-17.63,0,*7B
1508054871.16,353,16.44,74908.3,9.77,-16.23,-17.59,0,*7D
1508054872.37,354,16.44,74908.8,9.79,-16.23,-17.69,0,*77
1508054873.59,355,16.44,74916.3,9.83,-17.17,-18.65,0,*76
1508054874.85,356,16.44,74914.3,9.81,-17.07,-18.55,0,*75
1508054876.09,357,16.44,74912.8,9.81,-17.25,-18.73,0,*70
1508054877.3,358,16.44,74904.8,9.81,-16.89,-18.41,0,*79
1508054878.51,359,16.44,74900.3,9.81,-16.79,-18.25,0,*75
1508054879.76,360,16.44,74896.8,9.81,-16.31,-17.79,0,*75
1508054881.03,361,16.44,74900.5,9.81,-16.17,-17.55,0,*7E
1508054882.27,362,16.44,74912.5,9.83,-16.09,-17.45,0,*71
1508054883.51,363,16.44,74912.8,9.85,-15.95,-17.21,0,*72
1508054884.78,364,16.44,74914.5,9.85,-16.09,-17.45,0,*71
1508054885.96,365,16.44,74916.5,9.87,-16.79,-18.17,0,*7D
1508054887.17,366,16.44,74920.3,9.87,-16.93,-18.35,0,*7A
1508054888.39,367,16.44,74916.0,9.87,-16.83,-18.35,0,*7A
1508054889.6,368,16.44,74906.3,9.89,-16.97,-18.45,0,*79
1508054890.81,369,16.44,74892.8,9.87,-17.11,-18.65,0,*7B
1508054892.05,370,16.44,74886.0,9.87,-16.51,-17.93,0,*70
1508054893.29,371,16.44,74884.3,9.87,-16.13,-17.59,0,*71
1508054894.51,372,16.44,74892.0,9.89,-16.97,-18.45,0,*72
1508054895.75,373,16.44,74902.8,9.89,-16.59,-18.01,0,*71
1508054896.99,374,16.38,74906.3,9.89,-16.51,-17.87,0,*7F
1508054898.21,375,16.44,74906.8,9.91,-16.45,-17.97,0,*73
1508054899.45,376,16.44,74902.5,9.91,-16.17,-17.55,0,*79
1508054900.7,377,16.44,74900.0,9.91,-16.09,-17.55,0,*77
1508054901.93,378,16.44,74908.0,9.93,-15.99,-17.45,0,*71
1508054903.19,379,16.44,74906.8,9.93,-16.17,-17.63,0,*71
1508054904.41,380,16.44,74906.8,9.93,-16.75,-18.11,0,*79
1508054905.6,381,16.44,74914.3,9.95,-16.97,-18.45,0,*73
1508054906.83,382,16.44,74918.0,9.95,-17.11,-18.59,0,*72
1508054908.07,383,16.44,74918.3,9.95,-17.41,-18.93,0,*70
1508054909.34,384,16.44,74914.3,9.93,-17.03,-18.35,0,*7B
1508054910.54,385,16.44,74916.5,9.95,-16.55,-18.07,0,*7F
1508054911.76,386,16.44,74920.5,9.95,-16.41,-17.79,0,*7F
1508054912.95,387,16.44,74918.8,9.99,-16.41,-17.73,0,*78
1508054914.17,388,16.44,74912.5,9.95,-17.17,-18.73,0,*76
1508054915.36,389,16.44,74920.5,9.99,-16.83,-18.21,0,*70
1508054916.58,390,16.44,74918.3,9.95,-16.23,-17.69,0,*7D